Back to catalog

STARLINK-38001

AliveCommunicationsVLEO
NORAD 69828·PAYLOAD·🇺🇸 United States

Launched Jul 5, 2026 from Cape Canaveral Space Force Station

Loading…

Next Passes (next 24 hours)

TLE

FreshSource: CelesTrak SupGP

Epoch: Sep 14, 2026, 16:03 UTC

1 69828C 26154K   26257.66923611 -.00006931  00000+0 -20484-3 0  2575
2 69828  53.1605 359.1271 0001310  72.4182 193.5293 15.34383517    15

Track STARLINK-38001 in real time with AllMySat

Download on the App Store